www.pogodaiklimat.ru

Погода и климат >> Архив погоды >> Россия >> Адыгея >> Дондуковская


ПОГОДА в Дондуковской

  • Прогноз погоды в Дондуковской
  • Монитор погоды в Дондуковской

АРХИВ ПОГОДЫ в Дондуковской

Время (UTC), дата Ветер
(напр.,м/с)
 
Видим.   Явления Облачность Т
(С)
Тd
(С)
f
(%)
Тe
(С)
Тes
(С)
Комфортность P
(гПа)
Po
(гПа)
Тmin
(С)
Tmax
(С)
R
(мм)
R24
(мм)
S
(см)
12 13.05 З 2 10 км 8/8 1000 м
[Sc diur, vesp Ac trans]
+20.8 +12.4 59 +24 +26 комфорт 1019.8 1001.4
15 13.05 З 2 10 км 8/4 1000 м
[Sc diur, vesp Ac As]
+18.9 +11.9 64 +20 +21 1019.2 1000.7 +21.2
18 13.05 ЮЗ 1 10 км 6/0
[Ac lent Ci fib]
+14.9 +10.2 73 +15 +15 1020.2 1001.4
21 13.05 Ю 2 10 км 6/0
[Ac As Ci fib]
+13.1 +11.5 90 +12 +12 1020.1 1001.2
00 14.05 ЮЗ 2 10 км 10/0
[Ac und]
+13.0 +11.1 88 +12 +12 1020.0 1001.1
03 14.05 Ю 2 10 км 3/0
[Ac lent Ci fib]
+12.2 +10.7 91 +11 +12 1020.4 1001.4 +12.0
06 14.05 ЮЗ 3 10 км 4/0
[Ac As Ci]
+17.7 +12.1 70 +18 +24 1019.7 1001.1
09 14.05 ЮЗ 4 10 км 3/0
[Ci fib]
+21.9 +11.1 50 +24 +35 комфорт 1018.6 1000.2
12 14.05 З 2 10 км 3/0
[Ci fib]
+24.3 +11.1 43 +26 +37 жарко 1017.8 999.6
15 14.05 З 2 10 км 3/0
[Ci fib]
+22.6 +10.7 47 +25 +26 комфорт 1017.5 999.2 +24.3
18 14.05 Ю 1 10 км ясно +14.0 +10.7 80 +14 +14 1019.2 1000.3
21 14.05 Ю 2 10 км ясно +12.1 +10.1 88 +11 +11 1019.6 1000.6
00 15.05 Ю 2 н/о н/о +11.4 +9.9 90 +10 +10 1019.1 1000.1
03 15.05 Ю 1 10 км ясно +11.3 +9.9 91 +11 +12 1019.1 1000.1 +9.7
06 15.05 штиль 0 10 км 3/0
[Ci fib]
+20.4 +12.0 59 +22 +35 комфорт 1019.1 1000.7
09 15.05 С 2 10 км 3/0
[Ci fib]
+23.6 +13.0 51 +26 +43 жарко 1018.2 1000.0
12 15.05 С 2 10 км 3/0
[Ci fib]
+25.3 +12.6 45 +27 +39 жарко 1016.8 998.7
15 15.05 С 1 10 км 5/0
[Ci]
+24.6 +13.4 50 +27 +29 жарко 1016.2 998.1 +25.8
18 15.05 штиль 0 10 км 5/0
[Ci fib]
+16.1 +13.1 82 +16 +16 1017.1 998.4
21 15.05 В 1 10 км 5/0
[Ci fib]
+14.9 +11.9 82 +15 +15 1016.2 997.5
00 16.05 В 1 10 км 5/0
[Ci fib]
+13.2 +11.2 88 +13 +13 1015.8 997.0
03 16.05 СВ 1 10 км 4/0
[Ci fib]
+13.7 +11.7 88 +14 +15 1015.0 996.2 +11.8
06 16.05 СВ 2 10 км 3/0
[Ci fib]
+23.8 +15.2 59 +27 +36 жарко 1014.3 996.1
09 16.05 СВ 3 10 км ясно +27.5 +13.0 41 +29 +44 жарко 1012.9 995.0
12 16.05 СВ 3 10 км ясно +29.4 +13.4 37 +31 +41 жарко 1011.3 993.6
15 16.05 СВ 2 10 км 3/0
[Ci fib]
+27.9 +14.6 44 +30 +32 жарко 1010.4 992.6 +29.5
18 16.05 СВ 1 10 км ясно +20.4 +13.7 65 +24 +24 комфорт 1011.2 992.9
21 16.05 СВ 1 10 км ясно +17.4 +13.8 79 +18 +18 1011.1 992.6
00 17.05 В 1 10 км ясно +14.3 +12.7 90 +15 +15 1010.7 992.1
03 17.05 В 1 10 км ясно +14.8 +13.1 90 +15 +16 1010.7 992.1 +12.9
06 17.05 СВ 1 10 км 4/0
[Ci fib]
+23.5 +14.7 58 +26 +37 жарко 1011.0 992.9
09 17.05 СВ 2 10 км 4/0
[Ci fib]
+28.3 +15.8 47 +31 +48 душно 1010.5 992.7
12 17.05 С 2 10 км 3/0
[Ci fib]
+30.1 +15.7 42 +33 +45 душно 1009.4 991.7
15 17.05 СВ 2 10 км 3/0
[Ci fib]
+28.1 +15.3 46 +31 +33 душно 1008.5 990.7 +31.0
18 17.05 СВ 1 10 км ясно +20.0 +13.4 66 +23 +23 комфорт 1008.7 990.4
21 17.05 В 2 10 км ясно +17.8 +12.4 71 +18 +18 1008.3 989.9
00 18.05 В 1 10 км 3/0
[Ci fib]
+15.9 +12.1 78 +17 +17 1007.9 989.4
03 18.05 штиль 0 10 км 5/0
[Ac As Ci fib]
+15.7 +12.7 82 +16 +16 1007.8 989.2 +14.1
06 18.05 СВ 2 10 км 8/0
[Ac As Ci]
+23.6 +15.5 60 +27 +33 жарко 1006.3 988.3
09 18.05 СВ 3 10 км 6/0
[Ac As Ci fib]
+27.5 +14.4 45 +30 +41 жарко 1006.2 988.4
12 18.05 СВ 2 10 км 3/0
[Ci fib]
+29.9 +13.5 37 +31 +43 жарко 1005.5 987.9
15 18.05 СВ 3 10 км 3/0
[Ci fib]
+27.1 +11.9 39 +28 +30 жарко 1005.0 987.2 +30.0
18 18.05 СВ 1 10 км 4/0
[Ci]
+20.7 +13.3 63 +24 +24 комфорт 1005.6 987.5
21 18.05 СВ 1 10 км 3/0
[Ci fib]
+17.5 +13.0 75 +19 +19 1005.1 986.8
00 19.05 СВ 1 10 км 3/0
[Ci fib]
+16.7 +13.5 81 +18 +18 1004.8 986.4
03 19.05 СВ 1 10 км 8/0
[Ac As Ci]
+17.7 +14.4 81 +19 +19 1005.8 987.5 +15.9
06 19.05 СЗ 1 10 км 10/10 1000 м
[Sc]
+19.6 +14.2 71 +22 +22 комфорт 1007.7 989.4
09 19.05 СВ 1 10 км 8/0
[Ac As Ci fib]
+25.3 +16.3 57 +29 +42 душно 1008.5 990.6
12 19.05 СЗ 1 10 км гроза без осадков 10/5 1000 м
[Cb cap Ac As]
+23.6 +16.7 65 +27 +29 жарко 1009.9 991.8
15 19.05 З 2
{11}
10 км {гроза} 10/8 1000 м
[Sc diur, vesp Ac lent]
+21.5 +17.1 76 +25 +26 комфорт 1011.5 993.3 +26.1
18 19.05 ЮЗ 1 10 км {гроза} 8/0
[Ac As]
+17.7 +15.8 89 +19 +19 1011.9 993.4
21 19.05 З 1 10 км 10/0
[Ac und]
+17.6 +16.0 90 +19 +19 1012.2 993.7
00 20.05 Ю 1 10 км 10/0
[Ac und]
+16.2 +14.8 91 +17 +17 1013.0 994.4
03 20.05 ЮЗ 1 10 км 10/8 1000 м
[Sc Ac lent]
+16.9 +15.4 91 +18 +18 1013.5 995.0 +16.0
06 20.05 З 1 10 км в посл. час гроза 10/8 1000 м
[Sc Ac und]
+19.1 +16.5 85 +22 +22 комфорт 1014.8 996.4
09 20.05 ЮЗ 3 10 км 10/10 1000 м
[Sc]
+20.1 +16.4 79 +23 +23 комфорт 1016.4 998.0

 

Местоположение метеостанции Дондуковская (Адыгея, Россия): широта 44.86 долгота 40.35 высота над уровнем моря 158 м.

В архиве по умолчанию представлена погода в Дондуковской за последнюю неделю. Архивные данные за месяц целиком и за предыдущие месяцы, начиная с января 2011 года, Вы можете получить, выбрав интересующий диапазон дат из раскрывающегося списка и нажав кнопку "Ввод!".


*Определитесь, кто Вы:
робот инопланетянин человек

Внимание! Время в таблицах - всемирное. Для получения местного времени необходимо прибавить поправку, которая равна 3 ч.

Смотрите также архив погоды в соседних городах и на ближайших метеорологических станциях:

Погода в Майкопе (Адыгея, Россия) (34 км)
Погода в Белореченске (Краснодарский край, Россия) (38 км)
Погода в Лабинске (Краснодарский край, Россия) (38 км)
Погода в Даховской (Адыгея, Россия) (38 км)
Погода в Шунтуке (Адыгея, Россия) (47 км)
Погода в Армавире (Краснодарский край, Россия) (62 км)
Погода в Усть-Лабинске (Краснодарский край, Россия) (64 км)
Погода в Кропоткине (Краснодарский край, Россия) (66 км)
Погода в Псебае (Краснодарский край, Россия) (88 км)
Погода в Кореновске (Краснодарский край, Россия) (96 км)

Пояснения к столбцам:

Ветер - указаны скорость ветра в м/с - средняя за 10 мин, порывы в срок и между сроками (в фигурных скобках) и направление, откуда дует ветер: С - северный, СВ - северо-восточный, В - восточный, ЮВ - юго-восточный, Ю - южный, ЮЗ - юго-западный, З - западный, СЗ - северо-западный.
Видимость - горизонтальная дальность видимости в метрах или километрах. При видимости от 1 до 10 км при отсутствии осадков обычно наблюдается дымка, при ухудшении видимости до 1 км и менее - туман. В сухую погоду видимость может ухудшаться дымом, пылью или мглою.
Явления - указаны атмосферные явления, наблюдавшиеся в срок или в последний час перед сроком; фигурными скобками обозначены явления, наблюдавшиеся между сроками (за 1-3 часа до срока); квадратными скобками обозначены град или гололедные отложения с указанием их диаметра в мм.
Облачность - указаны через наклонную черту общая и нижняя облачность в баллах и высота нижней границы облаков в метрах; квадратными скобками обозначены формы облаков: Ci - перистые, Cs - перисто-слоистые, Cc - перисто-кучевые, Ac - высококучевые, As - высокослоистые, Sc - слоисто-кучевые, Ns - слоисто-дождевые, Cu - кучевые, Cb - кучево-дождевые. Подробнее классификацию облаков см. в Атласе облаков (PDF).
T - Температура воздуха - температура, измеренная на высоте 2 м над землей.
Td - Температура точки росы - температура, при понижении до которой содержащийся в воздухе водяной пар достигнет насыщения.
f - Относительная влажность воздуха - влажноcть воздуха, измеренная на высоте 2 м над землей.
Te - Эффективная температура - температура, которую ощущает одетый по сезону человек в тени. Характеристика душности погоды. При расчете учитывается влияние влажности воздуха и скорости ветра на теплоощущения человека.
Tes - Эффективная температура на солнце - температура, которую ощущает человек, с поправкой на солнечный нагрев. Характеристика знойности погоды. Зависит от высоты солнца над горизонтом, облачности и скорости ветра. Ночью, в пасмурную погоду, а также при ветре 12 м/с и более поправка равна нулю.
P - Атмосферное давление - приведенное к уровню моря атмосферное давление.
Po - Атмосферное давление - измеренное на уровне метеостанции атмосферное давление.
Tmin - Минимальная температура - минимум температуры воздуха на высоте 2 м над землей.
Tmax - Максимальная температура - максимум температуры воздуха на высоте 2 м над землей.
R - Количество осадков - Количество выпавших осадков за период времени, мм. При наведении курсора мыши на число - период времени, за который выпало указанное количество осадков.
R24 - Количество осадков - Количество выпавших осадков за 24 часа, мм.
S - Снежный покров - Высота снежного покрова, см. При наведении курсора мыши на число - состояние снежного покрова и степень покрытия местности в баллах.